Regional Weather Roundup
Issued by NWS

Home | Current Version | Previous Version | Text Only | Print | Product List | Glossary On
Versions: 1 2 3 4 5 6 7 8 9 10 11 12 13 14 15 16 17 18 19 20 21 22 23 24 25 26 27 28 29 30 31 32 33 34 35 36 37 38 39 40 41 42 43 44 45 46 47 48 49 50
000
ASUS44 KOUN 241610
RWROK

WEATHER ROUNDUP FOR OKLAHOMA
NATIONAL WEATHER SERVICE NORMAN OK
1000 AM CST TUE JAN 24 2017

NOTE: "FAIR" INDICATES FEW OR NO CLOUDS BELOW 12,000 FEET WITH NO
      SIGNIFICANT WEATHER AND/OR OBSTRUCTIONS TO VISIBILITY.

OKZ001>007-009>012-014-015-017-241700-
NORTHWEST OKLAHOMA AND THE PANHANDLE

CITY           SKY/WX    TMP DP  RH WIND       PRES   REMARKS
GAGE           SUNNY     59  32  36 SW15G24   29.49F
GUYMON         SUNNY     50  33  52 SW15      29.48S
ENID/WOODRING  MOSUNNY   52  43  71 S15G24    29.52S
$$

OKZ016-021>023-033>039-044-045-241700-
SOUTHWEST OKLAHOMA

CITY           SKY/WX    TMP DP  RH WIND       PRES   REMARKS
LAWTON/REGL    CLOUDY    48  40  73 CALM      29.63R
LAWTON/FT SILL CLOUDY    51  41  70 S7        29.61R
FREDERICK      SUNNY     54  39  57 S9        29.59R
CLINTON        SUNNY     53  38  56 S16       29.57R
HOBART         SUNNY     55  39  54 S21       29.59R
ALTUS AFB      SUNNY     53  39  59 S10       29.59S
$$

OKZ018>020-024>031-241700-
CENTRAL OKLAHOMA

CITY           SKY/WX    TMP DP  RH WIND       PRES   REMARKS
OKLAHOMA CITY  MOSUNNY   55  37  50 S21       29.58S
OKC/WILEY POST SUNNY     57  38  48 S17G25    29.57S
OKC/TINKER AFB SUNNY     57  36  45 S21G28    29.58R
STILLWATER     SUNNY     56  35  45 S16       29.56F
GUTHRIE        SUNNY     59  37  44 S17G24    29.56S
$$

OKZ008-013-054>072-241700-
NORTHEAST OKLAHOMA

CITY           SKY/WX    TMP DP  RH WIND       PRES   REMARKS
TULSA          MOSUNNY   55  36  48 S15G24    29.61F
TULSA/JONES    SUNNY     56  35  45 S14       29.61F
PONCA CITY     SUNNY     54  36  50 S21G29    29.51F
BARTLESVILLE   SUNNY     52  36  54 S14G20    29.59F
MUSKOGEE       SUNNY     54  37  52 SE18G26   29.67F
$$

OKZ032-040>043-046>053-073>077-241700-
SOUTH CENTRAL/SOUTHEAST OKLAHOMA

CITY           SKY/WX    TMP DP  RH WIND       PRES   REMARKS
ARDMORE/DWNTWN MOSUNNY   54  37  54 S5        29.65S
MCALESTER      MOSUNNY   60  36  40 S10G23    29.67F
$$





USA.gov is the U.S. government's official web portal to all federal, state and local government web resources and services.